Nantucket, MA

3:56 PM EDT on April 29, 2017 (GMT -0400)
Nantucket Memorial

Weather History for KACK - November, 2011

Change the Weather History Date:

Thursday, November 3, 2011

  Actual Average Record
Temperature  
Mean Temperature 45 °F -  
Max Temperature 59 °F 60 °F 69 °F (1971)
Min Temperature 33 °F 45 °F 25 °F (1976)
Degree Days  
Heating Degree Days 20    
Moisture  
Dew Point 43 °F    
Average Humidity 85    
Maximum Humidity 100    
Minimum Humidity 65    
Precipitation  
Precipitation 0.00 in - - ()
Sea Level Pressure  
Sea Level Pressure 30.10 in    
Wind  
Wind Speed 6 mph (SW)    
Max Wind Speed 17 mph    
Max Gust Speed -    
Visibility 9 miles    
Events      
Averages and records for this station are not official NWS values.
T = Trace of Precipitation, MM = Missing Value Source: NWS Daily Summary

Daily Weather History Graph

Daily Weather History Graph

Search for Another Location

Airport or City:

Trip Planner

Search our weather history database for the weather conditions in past years. The results will help you decide how hot, cold, wet, or windy it might be!

Date:

Astronomy

Nov. 03, 2011 Rise Set
Actual Time 7:13 AM EDT 5:33 PM EDT
Civil Twilight 6:44 AM EDT 6:02 PM EDT
Nautical Twilight 6:12 AM EDT 6:34 PM EDT
Astronomical Twilight 5:39 AM EDT 7:07 PM EDT
Moon 1:59 PM EDT (11/3) 12:18 AM EDT (11/3)
Length of Visible Light 11h 17m
Length of Day
10h 19m
First Quarter, 60% of the Moon is Illuminated
Nov 3
First Quarter
Nov 10
Full
Nov 18
Last Quarter
Nov 25
New
Dec 2
First Quarter

Hourly Weather History & Observations

Time (EDT) Temp. Windchill Dew Point Humidity Pressure Visibility Wind Dir Wind Speed Gust Speed Precip Events Conditions
12:53 AM 39.0 °F 36.8 °F 36.0 °F 89% 30.24 in 10.0 mi WNW 3.5 mph - N/A   Clear
1:53 AM 37.0 °F 34.5 °F 36.0 °F 96% 30.23 in 10.0 mi WNW 3.5 mph - N/A   Clear
2:53 AM 37.0 °F - 34.0 °F 89% 30.22 in 10.0 mi Calm Calm - N/A   Clear
3:38 AM 33.8 °F - 33.8 °F 100% 30.21 in 1.8 mi Calm Calm - N/A   Clear
3:50 AM 35.6 °F - 35.6 °F 100% 30.21 in 3.0 mi Calm Calm - N/A   Clear
3:53 AM 34.0 °F - 34.0 °F 100% 30.21 in 6.0 mi Calm Calm - N/A   Clear
4:53 AM 36.0 °F - 35.1 °F 97% 30.20 in 10.0 mi Calm Calm - N/A   Clear
5:53 AM 35.6 °F - 35.6 °F 100% 30.18 in 10.0 mi Calm Calm - N/A   Clear
6:53 AM 37.9 °F 35.5 °F 37.0 °F 97% 30.18 in 10.0 mi SW 3.5 mph - N/A   Clear
7:53 AM 41.0 °F 39.0 °F 39.9 °F 96% 30.17 in 9.0 mi SSW 3.5 mph - N/A   Partly Cloudy
8:53 AM 53.1 °F - 48.9 °F 86% 30.17 in 10.0 mi SW 6.9 mph - N/A   Clear
9:53 AM 55.9 °F - 46.9 °F 72% 30.15 in 10.0 mi SSW 9.2 mph - N/A   Clear
10:53 AM 55.9 °F - 48.0 °F 75% 30.13 in 10.0 mi SSW 11.5 mph - N/A   Clear
11:53 AM 57.0 °F - 48.0 °F 72% 30.11 in 10.0 mi SW 12.7 mph - N/A   Clear
12:53 PM 57.9 °F - 46.0 °F 65% 30.07 in 10.0 mi SW 16.1 mph - N/A   Clear
1:53 PM 57.9 °F - 46.0 °F 65% 30.05 in 10.0 mi WSW 16.1 mph - N/A   Clear
2:53 PM 57.9 °F - 48.0 °F 70% 30.02 in 10.0 mi WSW 16.1 mph - N/A   Clear
3:53 PM 55.9 °F - 46.9 °F 72% 30.00 in 10.0 mi WSW 17.3 mph - N/A   Clear
4:53 PM 55.0 °F - 48.0 °F 77% 29.98 in 10.0 mi SW 15.0 mph - N/A   Clear
5:53 PM 53.1 °F - 48.0 °F 83% 29.98 in 10.0 mi SW 15.0 mph - N/A   Clear
7:53 PM 54.0 °F - 48.9 °F 83% 29.96 in 10.0 mi WSW 13.8 mph - N/A   Clear
8:53 PM 54.0 °F - 48.9 °F 83% 29.95 in 10.0 mi SW 15.0 mph - N/A   Clear
9:53 PM 53.1 °F - 50.0 °F 89% 29.95 in 9.0 mi WSW 12.7 mph - N/A   Clear
10:53 PM 52.0 °F - 50.0 °F 93% 29.94 in 9.0 mi WSW 12.7 mph - N/A   Clear
11:53 PM 53.1 °F - 48.9 °F 86% 29.92 in 10.0 mi WSW 10.4 mph - N/A   Clear